COSMOS 86

导读

**COSMOS 86(宇宙86号)卫星**是冷战时期苏联(现归属独立国家联合体CIS)研制发射的“宇宙”系列卫星,于1965年9月18日08时发射入轨。作为苏联早期空间探索的重要组成部分,该系列卫星多承担军事侦察、技术验证或空间环境探测任务,其发射标志着苏联在航天领域的持续推进,为后续航天技术发展积累了宝贵经验,目前已完成任务陨落。

基本信息
目录编号:
1584
目录名称:
COSMOS 86
国际标识:
1965-073A
轨道中心:
EARTH
卫星名称:
COSMOS 86
卫星全名:
--
卫星状态:
在轨 (已飞行22185 天)
发射日期:
1965-09-18 UTC
国别 :
俄罗斯(独联体) (CIS)
星等 :
--
轨道信息
数据来源 国际轨道数据 AOE轨道数据
星历时间 2026-06-15T00:42:43+0800
11小时前
查看轨道信息
2026-06-15T02:00:00+0800
10小时前
查看轨道信息
半长轴 7834.606km 7834.606km
偏心率 0.0211919 0.021194
轨道倾角 56.057° 56.057°
近地点辐角 280.219° 280.327°
升交点赤经 146.834° 146.689°
平近点角 254.107° 135.960°
近地点 1290.438km 1290.422km
远地点 1622.5km 1622.516km
周期 115.023分钟 115.023分钟
每日圈数 12.519213 12.519214
详细信息
使用方式:
暂无
2D轨道图
3D轨道图
轨道高度分析图
轨道倾角分析图
轨道综合分析图
查看轨道综合分析图